Location: Poughquag
(41.6090°N, 73.6820°W)
Time: 12:46:54
(UTC-04:00)

Vanguard 1 - Pass Details

Date: 03 June 2020
Orbit: 650 x 3833 km, 34.2° (Epoch: 07 July)

Event Time Altitude Azimuth Distance (km) Brightness Sun altitude
Rises 14:02:29 0° 281° (W) 7,979 14.9 65.9°
Reaches altitude 10° 14:12:01 10° 263° (W) 6,791 14.8 64.7°
Maximum altitude 14:21:42 15° 237° (WSW) 5,910 14.7 63.3°
Drops below altitude 10° 14:30:07 10° 208° (SSW) 5,707 14.5 62.1°
Sets 14:36:53 0° 187° (S) 6,068 14.4 61.0°
